GW3329 Weather Reports


time (UTC)temp
C
wind
direction
speed
KPH
gust
KPH
rain 1hr
cm
rain 24hr
cm
rain mn
cm
humidity
%
barometer
mb
20260510171455 20 227 3.2 4.8 0.00 0.00 0.00 74 1017.4
20260510170951 19 278 3.2 6.4 0.00 0.00 0.00 76 1017.3
20260510170448 18 285 3.2 4.8 0.00 0.00 0.00 76 1017.2
20260510165944 19 281 3.2 4.8 0.00 0.00 0.00 76 1017.2
20260510165440 19 115 0.0 1.6 0.00 0.00 0.00 77 1017.2
20260510164937 19 181 0.0 1.6 0.00 0.00 0.00 77 1017.2
20260510164434 18 180 0.0 1.6 0.00 0.00 0.00 79 1017.3
20260510163934 18 94 0.0 1.6 0.00 0.00 0.00 80 1017.4
20260510163430 17 139 0.0 3.2 0.00 0.00 0.00 84 1017.3
20260510162925 17 317 0.0 3.2 0.00 0.00 0.00 84 1017.3
20260510162423 16 192 1.6 4.8 0.00 0.00 0.00 86 1016.9
20260510161919 16 179 1.6 3.2 0.00 0.00 0.00 87 1017.1
20260510161414 15 100 0.0 1.6 0.00 0.00 0.00 89 1017.2
20260510160912 15 248 1.6 1.6 0.00 0.00 0.00 91 1017.1
20260510160408 15 149 0.0 0.0 0.00 0.00 0.00 93 1017.2
20260510155902 13 128 0.0 0.0 0.00 0.00 0.00 96 1017.3
20260510155359 13 128 0.0 0.0 0.00 0.00 0.00 98 1017.2
20260510154855 13 117 0.0 0.0 0.00 0.00 0.00 98 1017.1
20260510154352 13 120 0.0 0.0 0.00 0.00 0.00 99 1017.3
20260510153845 13 150 0.0 0.0 0.00 0.00 0.00 99 1017.2
20260510153341 13 138 0.0 0.0 0.00 0.00 0.00 99 1017.2
20260510152838 12 177 0.0 0.0 0.00 0.00 0.00 99 1017.3
20260510152336 12 212 0.0 1.6 0.00 0.00 0.00 99 1017.2
20260510151832 12 168 0.0 0.0 0.00 0.00 0.00 99 1017.1
20260510151330 12 177 0.0 0.0 0.00 0.00 0.00 99 1017.3
20260510150825 12 194 0.0 0.0 0.00 0.00 0.00 99 1017.2
20260510150321 12 172 0.0 0.0 0.00 0.00 0.00 99 1017.2
20260510145818 12 269 0.0 0.0 0.00 0.00 0.00 99 1017.2
20260510145314 12 192 0.0 1.6 0.00 0.00 0.00 99 1017.4
20260510144811 12 231 0.0 0.0 0.00 0.00 0.00 99 1017.4
20260510144308 12 197 0.0 0.0 0.00 0.00 0.00 99 1017.3
20260510143807 12 150 0.0 0.0 0.00 0.00 0.00 99 1017.1
20260510143304 12 192 0.0 0.0 0.00 0.00 0.00 99 1017.2
20260510142800 11 165 0.0 3.2 0.00 0.00 0.00 99 1017.1
20260510142257 11 130 0.0 0.0 0.00 0.00 0.00 99 1017.3
20260510141754 11 241 1.6 1.6 0.00 0.00 0.00 99 1017.2
20260510141252 11 153 0.0 0.0 0.00 0.00 0.00 99 1017.0
20260510140749 11 170 0.0 0.0 0.00 0.00 0.00 99 1017.1
20260510140244 11 214 0.0 0.0 0.00 0.00 0.00 99 1017.2
20260510135738 11 161 0.0 0.0 0.00 0.00 0.00 99 1016.9
20260510135234 11 166 0.0 0.0 0.00 0.00 0.00 99 1016.9
20260510134732 11 166 0.0 0.0 0.00 0.00 0.00 99 1016.8
20260510134229 11 167 0.0 0.0 0.00 0.00 0.00 99 1016.8
20260510133724 11 167 0.0 0.0 0.00 0.00 0.00 99 1017.0
20260510133220 11 167 0.0 0.0 0.00 0.00 0.00 99 1016.6
20260510132716 11 167 0.0 0.0 0.00 0.00 0.00 99 1016.7
20260510132214 11 167 0.0 0.0 0.00 0.00 0.00 99 1016.6
20260510131711 11 167 0.0 0.0 0.00 0.00 0.00 99 1016.6
20260510131209 11 164 0.0 0.0 0.00 0.00 0.00 99 1016.7
20260510130705 11 153 0.0 0.0 0.00 0.00 0.00 99 1016.8
20260510130203 11 189 0.0 0.0 0.00 0.00 0.00 99 1016.9
20260510125658 10 161 0.0 0.0 0.00 0.00 0.00 99 1016.5
20260510125155 10 158 0.0 0.0 0.00 0.00 0.00 99 1016.6
20260510124652 10 158 0.0 0.0 0.00 0.00 0.00 99 1016.7
20260510124149 10 156 0.0 0.0 0.00 0.00 0.00 99 1016.5
20260510123644 10 170 0.0 0.0 0.00 0.00 0.00 99 1016.4
20260510123140 10 161 0.0 0.0 0.00 0.00 0.00 99 1016.6
20260510122637 10 160 0.0 0.0 0.00 0.00 0.00 99 1016.7
20260510122133 10 160 0.0 0.0 0.00 0.00 0.00 99 1016.6
20260510121630 10 164 0.0 0.0 0.00 0.00 0.00 99 1016.6
20260510121127 10 165 0.0 0.0 0.00 0.00 0.00 99 1016.6
20260510120625 10 165 0.0 0.0 0.00 0.00 0.00 99 1016.6
20260510120120 10 165 0.0 0.0 0.00 0.00 0.00 99 1016.6
20260510115617 10 164 0.0 0.0 0.00 0.00 0.00 99 1016.6
20260510115114 10 164 0.0 0.0 0.00 0.00 0.00 98 1016.5
20260510114610 10 179 0.0 0.0 0.00 0.00 0.00 98 1016.6
20260510114106 9 163 0.0 0.0 0.00 0.00 0.00 98 1016.7
20260510113601 9 163 0.0 0.0 0.00 0.00 0.00 98 1016.3
20260510113059 9 163 0.0 0.0 0.00 0.00 0.00 98 1016.3
20260510112555 9 163 0.0 0.0 0.00 0.00 0.00 98 1016.3
20260510112052 9 163 0.0 0.0 0.00 0.00 0.00 98 1016.3
20260510111548 9 163 0.0 0.0 0.00 0.00 0.00 98 1016.5
20260510111045 10 168 0.0 0.0 0.00 0.00 0.00 98 1016.2
20260510110541 10 166 0.0 0.0 0.00 0.00 0.00 98 1016.4
20260510110037 10 164 0.0 0.0 0.00 0.00 0.00 98 1016.2
20260510105533 10 164 0.0 0.0 0.00 0.00 0.00 98 1016.3
20260510105028 10 164 0.0 0.0 0.00 0.00 0.00 98 1016.2
20260510104525 10 164 0.0 0.0 0.00 0.00 0.00 98 1016.3
20260510104021 11 165 0.0 0.0 0.00 0.00 0.00 98 1016.1
20260510103518 11 203 0.0 0.0 0.00 0.00 0.00 98 1016.0
20260510103014 11 187 0.0 0.0 0.00 0.00 0.00 98 1016.0
20260510102510 11 164 0.0 0.0 0.00 0.00 0.00 98 1016.0
20260510102007 11 164 0.0 0.0 0.00 0.00 0.00 98 1015.9
20260510101504 11 164 0.0 0.0 0.00 0.00 0.00 98 1016.3
20260510101003 11 164 0.0 0.0 0.00 0.00 0.00 98 1016.3
20260510100458 11 164 0.0 0.0 0.00 0.00 0.00 97 1016.0
20260510095955 11 164 0.0 0.0 0.00 0.00 0.00 97 1016.1
20260510095450 11 164 0.0 0.0 0.00 0.00 0.00 97 1016.2
20260510094944 11 163 0.0 0.0 0.00 0.00 0.00 97 1016.3
20260510094439 11 163 0.0 0.0 0.00 0.00 0.00 97 1016.5
20260510093935 11 163 0.0 0.0 0.00 0.00 0.00 97 1016.3
20260510093430 11 163 0.0 0.0 0.00 0.00 0.00 97 1016.4
20260510092927 11 164 0.0 0.0 0.00 0.00 0.00 97 1016.0
20260510092425 11 163 0.0 0.0 0.00 0.00 0.00 97 1016.3
20260510091924 11 163 0.0 0.0 0.00 0.00 0.00 97 1016.3
20260510091422 11 164 0.0 0.0 0.00 0.00 0.00 97 1016.2
20260510090918 11 166 0.0 0.0 0.00 0.00 0.00 97 1016.4
20260510090415 11 167 0.0 0.0 0.00 0.00 0.00 97 1016.3
20260510085911 12 164 0.0 0.0 0.00 0.00 0.00 97 1016.2
20260510085406 11 164 0.0 0.0 0.00 0.00 0.00 97 1016.2
20260510084901 11 164 0.0 0.0 0.00 0.00 0.00 97 1016.2
20260510084359 11 164 0.0 0.0 0.00 0.00 0.00 97 1016.3
20260510083856 11 164 0.0 0.0 0.00 0.00 0.00 97 1016.0
20260510083352 11 163 0.0 0.0 0.00 0.00 0.00 97 1016.3
20260510082848 11 163 0.0 0.0 0.00 0.00 0.00 96 1016.4
20260510082345 12 173 0.0 0.0 0.00 0.00 0.00 97 1016.3
20260510081844 12 172 0.0 0.0 0.00 0.00 0.00 97 1016.4
20260510081340 12 173 0.0 0.0 0.00 0.00 0.00 96 1016.5
20260510080837 12 173 0.0 0.0 0.00 0.00 0.00 96 1016.6
20260510080331 12 173 0.0 0.0 0.00 0.00 0.00 96 1016.5
20260510075828 12 173 0.0 0.0 0.00 0.00 0.00 96 1016.6
20260510075326 12 173 0.0 0.0 0.00 0.00 0.00 96 1016.7
20260510074822 12 173 0.0 0.0 0.00 0.00 0.00 96 1016.6
20260510074320 12 173 0.0 0.0 0.00 0.00 0.00 95 1016.7
20260510073815 12 175 0.0 0.0 0.00 0.00 0.00 95 1016.5
20260510073311 12 175 0.0 0.0 0.00 0.00 0.00 95 1016.7
20260510072807 12 175 0.0 0.0 0.00 0.00 0.00 95 1016.7
20260510072259 12 175 0.0 0.0 0.00 0.00 0.00 95 1016.7
20260510071755 12 175 0.0 0.0 0.00 0.00 0.00 95 1016.7
20260510071251 12 177 0.0 0.0 0.00 0.00 0.00 95 1016.8
20260510070750 12 177 0.0 0.0 0.00 0.00 0.00 95 1016.8
20260510070246 12 178 0.0 0.0 0.00 0.00 0.00 95 1016.9
20260510065741 12 180 0.0 0.0 0.00 0.00 0.00 95 1016.7
20260510065238 12 180 0.0 0.0 0.00 0.00 0.00 94 1016.7
20260510064734 12 180 0.0 0.0 0.00 0.00 0.00 94 1016.8
20260510064232 12 180 0.0 0.0 0.00 0.00 0.00 94 1016.7
20260510063728 12 181 0.0 0.0 0.00 0.00 0.00 94 1016.6
20260510063225 12 181 0.0 0.0 0.00 0.00 0.00 94 1016.8
20260510062722 13 182 0.0 0.0 0.00 0.00 0.00 94 1016.9
20260510062218 12 183 0.0 0.0 0.00 0.00 0.00 94 1016.7
20260510061713 12 183 0.0 0.0 0.00 0.00 0.00 94 1016.7
20260510061211 12 183 0.0 0.0 0.00 0.00 0.00 94 1016.6
20260510060707 12 183 0.0 0.0 0.00 0.00 0.00 93 1016.6
20260510060203 13 186 0.0 0.0 0.00 0.00 0.00 93 1016.6
20260510055700 13 184 0.0 0.0 0.00 0.00 0.00 93 1016.9
20260510055158 13 184 0.0 0.0 0.00 0.00 0.00 93 1016.7
20260510054653 13 185 0.0 0.0 0.00 0.00 0.00 93 1016.7
20260510054149 13 186 0.0 0.0 0.00 0.00 0.00 92 1016.7
20260510053648 13 186 0.0 0.0 0.00 0.00 0.00 92 1016.9
20260510053145 13 186 0.0 0.0 0.00 0.00 0.00 92 1016.7
20260510052641 13 187 0.0 0.0 0.00 0.00 0.00 92 1016.9
20260510052137 13 188 0.0 0.0 0.00 0.00 0.00 92 1016.6
20260510051633 13 190 0.0 0.0 0.00 0.00 0.00 92 1016.7
20260510051130 13 174 0.0 0.0 0.00 0.00 0.00 92 1016.8
20260510050627 13 174 0.0 0.0 0.00 0.00 0.00 92 1017.0
20260510050124 13 175 0.0 0.0 0.00 0.00 0.00 91 1016.7
20260510045621 13 172 0.0 0.0 0.00 0.00 0.00 91 1016.7
20260510045117 14 172 0.0 0.0 0.00 0.00 0.00 90 1016.6
20260510044614 13 172 0.0 0.0 0.00 0.00 0.00 91 1016.9
20260510044111 14 172 0.0 0.0 0.00 0.00 0.00 90 1016.6
20260510043607 14 173 0.0 0.0 0.00 0.00 0.00 90 1016.7
20260510043103 14 173 0.0 0.0 0.00 0.00 0.00 90 1016.8
20260510042601 14 173 0.0 0.0 0.00 0.00 0.00 89 1016.7
20260510042057 15 173 0.0 0.0 0.00 0.00 0.00 89 1016.6
20260510041554 15 174 0.0 0.0 0.00 0.00 0.00 89 1016.5
20260510041052 15 181 0.0 0.0 0.00 0.00 0.00 89 1016.4
20260510040548 15 166 0.0 0.0 0.00 0.00 0.00 89 1016.3
20260510040044 15 169 0.0 0.0 0.00 0.00 0.00 89 1016.4
20260510035541 15 161 0.0 0.0 0.00 0.00 0.00 88 1016.5
20260510035040 15 165 0.0 0.0 0.00 0.00 0.00 88 1016.4
20260510034539 15 171 0.0 0.0 0.00 0.00 0.00 88 1016.2
20260510034035 15 169 0.0 0.0 0.00 0.00 0.00 88 1016.3
20260510033531 15 166 0.0 0.0 0.00 0.00 0.00 88 1016.2
20260510033030 15 175 0.0 0.0 0.00 0.00 0.00 88 1016.2
20260510032526 15 172 0.0 0.0 0.00 0.00 0.00 88 1016.1
20260510032021 15 179 0.0 0.0 0.00 0.00 0.00 88 1016.0
20260510031516 15 173 0.0 0.0 0.00 0.00 0.00 88 1016.0
20260510031012 15 181 0.0 0.0 0.00 0.00 0.00 87 1016.1
20260510030508 15 179 0.0 0.0 0.00 0.00 0.00 87 1016.1
20260510030005 15 183 0.0 0.0 0.00 0.00 0.00 86 1016.1
20260510025502 15 174 0.0 0.0 0.00 0.00 0.00 86 1015.8
20260510024959 15 182 0.0 0.0 0.00 0.00 0.00 86 1015.7
20260510024450 15 179 0.0 0.0 0.00 0.00 0.00 85 1015.8
20260510023946 15 325 0.0 1.6 0.00 0.00 0.00 84 1015.9
20260510023443 16 165 0.0 0.0 0.00 0.00 0.00 83 1015.9
20260510022940 16 166 0.0 0.0 0.00 0.00 0.00 83 1015.8
20260510022438 16 163 0.0 0.0 0.00 0.00 0.00 82 1015.7
20260510021938 16 132 0.0 1.6 0.00 0.00 0.00 82 1015.8
20260510021436 16 91 0.0 0.0 0.00 0.00 0.00 81 1015.7
20260510020932 17 94 1.6 1.6 0.00 0.00 0.00 81 1015.7
20260510020427 17 174 0.0 1.6 0.00 0.00 0.00 81 1015.5
20260510015923 17 171 0.0 3.2 0.00 0.00 0.00 80 1015.7
20260510015419 17 162 0.0 1.6 0.00 0.00 0.00 80 1015.6
20260510014914 17 160 0.0 3.2 0.00 0.00 0.00 79 1015.3
20260510014412 18 232 3.2 4.8 0.00 0.00 0.00 79 1015.7
20260510013908 18 67 0.0 4.8 0.00 0.00 0.00 76 1015.7
20260510013403 18 230 0.0 3.2 0.00 0.00 0.00 76 1015.2
20260510012858 18 234 3.2 4.8 0.00 0.00 0.00 76 1015.2
20260510012354 18 254 4.8 4.8 0.00 0.00 0.00 75 1015.6
20260510011849 19 252 3.2 6.4 0.00 0.00 0.00 74 1015.5
20260510011344 19 262 3.2 4.8 0.00 0.00 0.00 74 1015.5
20260510010840 20 321 0.0 3.2 0.00 0.00 0.00 74 1015.5
20260510010338 20 189 1.6 3.2 0.00 0.00 0.00 72 1015.5
20260510005834 20 116 1.6 6.4 0.00 0.00 0.00 71 1015.3
20260510005331 20 162 0.0 4.8 0.00 0.00 0.00 70 1015.5
20260510004829 20 54 0.0 4.8 0.00 0.00 0.00 71 1015.5
20260510004326 21 201 1.6 3.2 0.00 0.00 0.00 69 1015.6
20260510003823 21 89 3.2 3.2 0.00 0.00 0.00 69 1015.5
20260510003321 21 326 3.2 3.2 0.00 0.00 0.00 67 1015.6
20260510002819 21 17 0.0 4.8 0.00 0.00 0.00 68 1015.6
20260510002317 21 176 0.0 4.8 0.00 0.00 0.00 67 1015.5
20260510001813 21 318 3.2 4.8 0.00 0.00 0.00 67 1015.6
20260510001311 21 269 4.8 9.7 0.00 0.00 0.00 67 1015.5
20260510000806 21 79 1.6 6.4 0.00 0.00 0.00 67 1015.7
20260510000305 22 187 0.0 4.8 0.00 0.00 0.00 65 1015.3
20260509235802 22 179 0.0 1.6 0.00 0.00 0.00 64 1015.7
20260509235258 22 33 1.6 4.8 0.00 0.00 0.00 64 1015.5
20260509234754 23 84 0.0 4.8 0.00 0.00 0.00 63 1015.3
20260509234251 22 96 1.6 3.2 0.00 0.00 0.00 63 1015.6
20260509233749 23 140 1.6 9.7 0.00 0.00 0.00 63 1015.3
20260509233246 23 333 1.6 3.2 0.00 0.00 0.00 62 1015.5
20260509232742 23 270 3.2 4.8 0.00 0.00 0.00 62 1015.5
20260509232240 23 12 1.6 3.2 0.00 0.00 0.00 63 1015.7
20260509231736 23 249 3.2 9.7 0.00 0.00 0.00 63 1015.8
20260509231233 23 329 3.2 6.4 0.00 0.00 0.00 61 1015.7
20260509230730 23 265 3.2 3.2 0.00 0.00 0.00 60 1015.6
20260509230227 23 185 1.6 4.8 0.00 0.00 0.00 61 1015.8
20260509225722 23 218 1.6 3.2 0.00 0.00 0.00 61 1015.9
20260509225218 23 211 0.0 6.4 0.00 0.00 0.00 61 1015.6
20260509224714 23 239 3.2 6.4 0.00 0.00 0.00 62 1015.8
20260509224211 23 236 0.0 3.2 0.00 0.00 0.00 62 1015.9
20260509223708 23 61 0.0 3.2 0.00 0.00 0.00 64 1015.9
20260509223205 23 253 0.0 4.8 0.00 0.00 0.00 62 1016.0
20260509222702 23 72 1.6 9.7 0.00 0.00 0.00 62 1016.1
20260509222158 23 119 0.0 4.8 0.00 0.00 0.00 63 1015.8
20260509221654 23 187 1.6 4.8 0.00 0.00 0.00 63 1016.0
20260509221149 23 274 1.6 9.7 0.00 0.00 0.00 62 1016.2
20260509220646 23 188 0.0 12.9 0.00 0.00 0.00 62 1016.2
20260509220142 24 280 8.0 11.3 0.00 0.00 0.00 61 1016.3
20260509215638 23 183 3.2 11.3 0.00 0.00 0.00 62 1016.3
20260509215135 23 217 3.2 4.8 0.00 0.00 0.00 62 1016.3
20260509214632 23 157 1.6 4.8 0.00 0.00 0.00 62 1016.2
20260509214129 24 266 1.6 4.8 0.00 0.00 0.00 61 1016.2
20260509213626 24 227 3.2 6.4 0.00 0.00 0.00 62 1016.4
20260509213121 23 251 6.4 9.7 0.00 0.00 0.00 63 1016.5
20260509212619 23 250 1.6 6.4 0.00 0.00 0.00 64 1016.7
20260509212116 23 183 1.6 11.3 0.00 0.00 0.00 63 1016.3
20260509211612 23 229 3.2 3.2 0.00 0.00 0.00 63 1016.6
20260509211109 23 237 6.4 11.3 0.00 0.00 0.00 64 1016.5
20260509210605 23 35 3.2 6.4 0.00 0.00 0.00 64 1016.6
20260509205556 23 169 3.2 6.4 0.00 0.00 0.00 65 1016.9
20260509205051 23 284 6.4 11.3 0.00 0.00 0.00 65 1016.9
20260509204548 23 25 1.6 6.4 0.00 0.00 0.00 65 1016.8
20260509204045 23 29 3.2 4.8 0.00 0.00 0.00 65 1016.6
20260509203540 23 50 3.2 12.9 0.00 0.00 0.00 66 1016.7
20260509203038 23 170 3.2 4.8 0.00 0.00 0.00 65 1016.9
20260509202533 23 326 3.2 3.2 0.00 0.00 0.00 66 1017.0
20260509202029 23 243 8.0 12.9 0.00 0.00 0.00 65 1017.0
20260509201524 23 146 3.2 11.3 0.00 0.00 0.00 65 1016.9
20260509201021 23 184 3.2 6.4 0.00 0.00 0.00 65 1017.1
20260509200515 22 208 1.6 6.4 0.00 0.00 0.00 66 1017.0
20260509200012 22 27 0.0 4.8 0.00 0.00 0.00 67 1016.7
20260509195508 23 235 3.2 4.8 0.00 0.00 0.00 66 1016.9
20260509195002 22 49 0.0 4.8 0.00 0.00 0.00 68 1017.2
20260509194457 22 30 3.2 9.7 0.00 0.00 0.00 67 1017.2
20260509193954 22 169 3.2 9.7 0.00 0.00 0.00 68 1017.2
20260509193449 22 209 4.8 6.4 0.00 0.00 0.00 67 1017.2
20260509192945 22 203 4.8 4.8 0.00 0.00 0.00 67 1017.0
20260509192442 23 189 3.2 6.4 0.00 0.00 0.00 66 1017.2
20260509191937 22 204 3.2 12.9 0.00 0.00 0.00 68 1017.2
20260509191432 22 213 3.2 9.7 0.00 0.00 0.00 67 1017.6
20260509190929 22 236 1.6 11.3 0.00 0.00 0.00 67 1017.2
20260509190426 22 344 1.6 6.4 0.00 0.00 0.00 69 1017.3
20260509185924 21 263 4.8 11.3 0.00 0.00 0.00 69 1017.3
20260509185421 22 305 6.4 9.7 0.00 0.00 0.00 68 1017.2
20260509184917 21 193 4.8 6.4 0.00 0.00 0.00 69 1017.4
20260509184415 22 225 4.8 9.7 0.00 0.00 0.00 68 1017.3
20260509183911 21 42 0.0 3.2 0.00 0.00 0.00 71 1017.5
20260509183406 21 302 3.2 4.8 0.00 0.00 0.00 71 1017.5
20260509182902 21 284 4.8 4.8 0.00 0.00 0.00 72 1017.6
20260509182359 21 143 1.6 6.4 0.00 0.00 0.00 72 1017.6
20260509181857 20 251 3.2 6.4 0.00 0.00 0.00 74 1017.6
20260509181354 20 162 1.6 3.2 0.00 0.00 0.00 74 1017.8
20260509180851 20 355 1.6 4.8 0.00 0.00 0.00 75 1017.6
20260509180346 20 92 0.0 6.4 0.00 0.00 0.00 77 1017.8
20260509175844 19 220 4.8 4.8 0.00 0.00 0.00 77 1017.8
20260509175340 19 262 3.2 6.4 0.00 0.00 0.00 79 1017.8
20260509174836 18 13 1.6 4.8 0.00 0.00 0.00 81 1017.6
20260509174332 18 158 0.0 6.4 0.00 0.00 0.00 81 1017.7
20260509173828 18 358 1.6 3.2 0.00 0.00 0.00 79 1018.0
20260509173323 18 210 1.6 9.7 0.00 0.00 0.00 81 1017.8
20260509172820 18 296 4.8 4.8 0.00 0.00 0.00 81 1017.8
20260509172317 18 238 3.2 6.4 0.00 0.00 0.00 82 1018.1
20260509171813 18 257 3.2 6.4 0.00 0.00 0.00 81 1017.6